"Period start","avg(HW err(1)/warn(2) (#))","avg(Visibility (m))","avg(Weather code (#))","avg(Precip intensity (mm/h))","min(HW err(1)/warn(2) (#))","max(HW err(1)/warn(2) (#))","std(HW err(1)/warn(2) (#))","med(HW err(1)/warn(2) (#))","min(Visibility (m))","max(Visibility (m))","std(Visibility (m))","med(Visibility (m))","min(Weather code (#))","max(Weather code (#))","std(Weather code (#))","med(Weather code (#))","min(Precip intensity (mm/h))","max(Precip intensity (mm/h))","std(Precip intensity (mm/h))","med(Precip intensity (mm/h))"
2017-08-19 00:00:00,0,3942,61,4.03,0,0,0,0,3141,5182,735,3644,61,61,0,61,2.70,6.35,1.09,3.75
2017-08-19 00:10:00,0,3112,56,2.71,0,0,0,0,2740,3435,231,3175,52,61,4,52,1.40,6.35,1.60,1.85
2017-08-19 00:20:00,0,3798,61,10.90,0,0,0,0,2962,4716,559,3860,61,62,0,61,4.15,20.50,5.02,8.60
2017-08-19 00:30:00,0,5811,62,11.30,0,2,1,0,3652,7973,1716,6220,61,62,0,62,4.45,26.20,6.13,11.07
2017-08-19 00:40:00,2,7333,61,7.43,0,2,1,2,4275,10545,1839,7374,61,62,0,61,3.45,13.40,3.24,7.32
2017-08-19 00:50:00,2,6316,61,6.75,0,2,1,2,5228,7500,790,6283,61,61,0,61,2.55,8.55,1.82,7.08
2017-08-19 01:00:00,2,8108,61,3.58,2,2,0,2,6343,11635,1572,7821,61,61,0,61,1.25,6.70,1.51,3.85
2017-08-19 01:10:00,2,11044,61,3.55,2,2,0,2,7982,13767,2041,11890,61,61,0,61,0.55,9.45,2.79,2.65
2017-08-19 01:20:00,2,11237,59,1.04,2,2,0,2,6262,18475,4053,11280,52,61,4,61,0.15,2.95,0.89,0.85
2017-08-19 01:30:00,2,20825,61,1.39,2,2,0,2,13836,30907,5509,20138,61,61,0,61,0.10,3.35,0.99,1.15
2017-08-19 01:40:00,2,35308,54,0.33,2,2,0,2,19427,45081,8142,36562,51,61,5,51,0.15,1.10,0.27,0.20
2017-08-19 01:50:00,2,46157,51,0.26,2,2,0,2,36356,50000,3841,46170,51,51,0,51,0.10,0.50,0.11,0.25
2017-08-19 02:00:00,2,44645,56,0.67,0,2,1,2,38320,50000,4422,45512,51,61,5,56,0.15,1.15,0.27,0.62
2017-08-19 02:10:00,2,35063,61,1.54,0,2,1,2,17615,50000,11718,34424,61,61,0,61,0.45,4.45,1.09,1.48
2017-08-19 02:20:00,2,19647,61,1.56,0,2,1,2,12102,26681,4280,20102,61,61,0,61,0.65,3.55,1.01,1.08
2017-08-19 02:30:00,2,10852,61,1.43,0,2,1,2,9011,15711,2222,9432,61,61,0,61,0.50,3.50,0.95,0.95
2017-08-19 02:40:00,2,13252,58,1.08,2,2,0,2,10568,15263,1502,13154,51,61,5,61,0.20,2.65,0.88,0.62
2017-08-19 02:50:00,1,12870,61,1.02,0,2,1,0,8029,16737,2462,13140,61,61,0,61,0.35,2.55,0.69,0.78
2017-08-19 03:00:00,0,17402,53,0.47,0,0,0,0,13116,29778,4856,15817,51,61,4,52,0.05,0.70,0.18,0.45
2017-08-19 03:10:00,0,10606,58,4.29,0,0,0,0,8964,12764,1140,10552,52,61,4,61,1.30,8.15,2.29,4.10
2017-08-19 03:20:00,2,8782,61,8.44,0,2,1,2,7578,10023,777,8681,61,62,0,61,3.45,22.85,5.50,7.12
2017-08-19 03:30:00,2,8555,61,11.43,0,2,1,2,7678,9893,706,8250,61,62,0,61,5.00,28.55,8.61,8.02
2017-08-19 03:40:00,2,8751,62,13.07,2,2,0,2,7871,9717,528,8766,61,62,0,62,8.60,19.70,3.28,12.97
2017-08-19 03:50:00,2,12263,61,8.81,2,2,0,2,9977,14978,1428,11912,61,62,0,61,2.95,16.60,3.71,9.00
2017-08-19 04:00:00,2,14460,61,5.37,2,2,0,2,11371,18526,2161,14346,61,62,0,61,0.90,14.55,4.30,4.17
2017-08-19 04:10:00,2,15434,61,3.65,2,2,0,2,11936,17850,1929,16354,61,61,0,61,1.45,9.35,2.68,2.12
2017-08-19 04:20:00,2,15124,61,2.79,2,2,0,2,9264,17621,2374,15838,61,61,0,61,1.70,4.90,1.08,2.30
2017-08-19 04:30:00,2,14138,61,4.06,2,2,0,2,8470,16261,2144,14711,61,61,0,61,1.65,6.50,1.78,3.80
2017-08-19 04:40:00,2,18718,61,4.38,2,2,0,2,13947,23384,2796,18964,61,62,0,61,2.15,10.55,2.25,3.58
2017-08-19 04:50:00,2,20351,61,3.23,2,2,0,2,13516,24995,3664,21521,61,61,0,61,1.30,8.05,2.23,2.45
2017-08-19 05:00:00,2,18138,61,6.77,2,2,0,2,13362,23428,2884,18570,61,62,0,61,3.85,12.55,2.81,6.25
2017-08-19 05:10:00,2,17012,61,3.46,2,2,0,2,13353,22101,2135,17098,61,61,0,61,1.60,6.50,1.47,2.73
2017-08-19 05:20:00,2,13574,61,4.39,2,2,0,2,11499,16390,1506,13379,61,62,0,61,1.70,11.30,3.01,3.12
2017-08-19 05:30:00,2,14255,61,3.36,2,2,0,2,11212,17855,1999,13794,61,61,0,61,1.65,5.35,1.07,3.35
2017-08-19 05:40:00,2,15861,61,3.50,2,2,0,2,12370,18398,1657,16099,61,61,0,61,1.45,7.40,1.86,2.65
2017-08-19 05:50:00,2,19775,61,2.79,2,2,0,2,15095,29673,4363,18370,61,61,0,61,1.15,4.50,1.07,3.12
2017-08-19 06:00:00,2,25677,58,1.36,2,2,0,2,19486,35621,4719,24348,52,61,4,61,0.40,2.85,0.79,1.10
2017-08-19 06:10:00,2,21668,53,0.90,2,2,0,2,16714,32595,5243,19606,52,61,3,52,0.30,3.25,0.80,0.73
2017-08-19 06:20:00,2,30232,55,0.57,2,2,0,2,20250,42901,6805,29594,51,61,5,51,0.10,1.95,0.53,0.38
2017-08-19 06:30:00,2,34510,57,0.34,2,2,0,2,23430,44839,6930,34920,51,61,5,61,0.05,1.20,0.34,0.25
2017-08-19 06:40:00,2,25980,51,0.41,2,2,0,2,15812,46326,8740,22797,51,52,0,51,0.20,0.75,0.17,0.40
2017-08-19 06:50:00,2,25916,51,0.27,2,2,0,2,17185,33980,4355,25762,51,51,0,51,0.10,0.70,0.19,0.20
2017-08-19 07:00:00,2,21244,51,0.24,2,2,0,2,13381,28825,4528,22034,51,51,0,51,0.10,0.45,0.11,0.25
2017-08-19 07:10:00,2,20093,51,0.18,2,2,0,2,15038,25409,2846,19852,51,51,0,51,0.05,0.35,0.08,0.17
2017-08-19 07:20:00,0,31328,36,0.04,0,2,1,0,16426,45308,10642,27736,0,61,29,56,0.00,0.10,0.04,0.03
2017-08-19 07:30:00,0,48568,0,0.00,0,0,0,0,44052,50000,2121,49494,0,0,0,0,0.00,0.00,0.00,0.00
2017-08-19 07:40:00,0,49872,0,0.00,0,0,0,0,48715,50000,386,50000,0,0,0,0,0.00,0.00,0.00,0.00
2017-08-19 07:50:00,0,46136,0,0.00,0,0,0,0,25100,50000,8121,50000,0,0,0,0,0.00,0.00,0.00,0.00
2017-08-19 08:00:00,0,34440,43,0.08,0,0,0,0,18988,44850,9878,38775,0,61,22,51,0.00,0.15,0.06,0.10
2017-08-19 08:10:00,0,41134,51,0.18,0,0,0,0,32377,49661,6068,41064,51,51,0,51,0.00,0.60,0.20,0.08
2017-08-19 08:20:00,0,31771,51,0.33,0,0,0,0,17864,49235,9234,33152,51,51,0,51,0.20,0.75,0.16,0.28
2017-08-19 08:30:00,0,22987,51,0.47,0,0,0,0,17134,29674,4074,23145,51,52,0,51,0.10,1.10,0.30,0.40
2017-08-19 08:40:00,0,22700,52,0.83,0,0,0,0,10677,41757,10871,20879,51,52,0,52,0.10,1.45,0.41,1.00
2017-08-19 08:50:00,1,12777,56,3.04,0,2,1,2,8913,16969,2643,12329,52,61,4,56,0.35,6.75,1.92,2.95
2017-08-19 09:00:00,2,20248,61,3.70,2,2,0,2,11089,40555,10002,15333,61,61,0,61,1.55,5.85,1.28,3.72
2017-08-19 09:10:00,2,41771,61,1.66,0,2,1,2,34377,50000,5920,41332,61,61,0,61,0.45,4.00,1.00,1.62
2017-08-19 09:20:00,0,34018,56,0.32,0,2,1,0,26704,48966,7916,31828,51,61,5,56,0.00,0.90,0.29,0.20
2017-08-19 09:30:00,0,45422,37,0.04,0,0,0,0,36865,50000,3998,46424,0,61,30,61,0.00,0.10,0.04,0.03
2017-08-19 09:40:00,0,46189,28,0.36,0,0,0,0,35558,50000,5333,48739,0,61,28,26,0.00,1.20,0.40,0.28
2017-08-19 09:50:00,0,47955,51,0.26,0,0,0,0,41723,50000,2841,49776,51,52,0,51,0.10,0.70,0.18,0.23
2017-08-19 10:00:00,0,49013,60,0.04,0,0,0,0,44975,50000,1577,49888,51,61,3,61,0.00,0.10,0.04,0.05
2017-08-19 10:10:00,0,36136,6,0.00,0,0,0,0,23151,50000,8544,34368,0,61,18,0,0.00,0.00,0.00,0.00
2017-08-19 10:20:00,0,42937,0,0.00,0,0,0,0,32456,49957,5416,43094,0,0,0,0,0.00,0.00,0.00,0.00
2017-08-19 10:30:00,0,47153,0,0.00,0,0,0,0,39556,50000,3941,49472,0,0,0,0,0.00,0.00,0.00,0.00
2017-08-19 10:40:00,0,49036,0,0.00,0,0,0,0,40887,50000,2721,50000,0,0,0,0,0.00,0.00,0.00,0.00
2017-08-19 10:50:00,0,36068,0,0.00,0,0,0,0,31101,43736,4061,36341,0,0,0,0,0.00,0.00,0.00,0.00
2017-08-19 11:00:00,0,29055,0,0.00,0,0,0,0,25804,32163,2273,28466,0,0,0,0,0.00,0.00,0.00,0.00
2017-08-19 11:10:00,0,26064,0,0.00,0,0,0,0,19934,36496,4199,25793,0,0,0,0,0.00,0.00,0.00,0.00
2017-08-19 11:20:00,0,37457,0,0.00,0,0,0,0,34222,41632,2353,37550,0,0,0,0,0.00,0.00,0.00,0.00
2017-08-19 11:30:00,0,49385,0,0.00,0,0,0,0,44607,50000,1609,50000,0,0,0,0,0.00,0.00,0.00,0.00
2017-08-19 11:40:00,0,50000,0,0.00,0,0,0,0,50000,50000,0,50000,0,0,0,0,0.00,0.00,0.00,0.00
2017-08-19 11:50:00,0,50000,0,0.00,0,0,0,0,50000,50000,0,50000,0,0,0,0,0.00,0.00,0.00,0.00
2017-08-19 12:00:00,0,50000,0,0.00,0,0,0,0,50000,50000,0,50000,0,0,0,0,0.00,0.00,0.00,0.00
2017-08-19 12:10:00,0,50000,0,0.00,0,0,0,0,50000,50000,0,50000,0,0,0,0,0.00,0.00,0.00,0.00
2017-08-19 12:20:00,0,50000,0,0.00,0,0,0,0,50000,50000,0,50000,0,0,0,0,0.00,0.00,0.00,0.00
2017-08-19 12:30:00,0,50000,0,0.00,0,0,0,0,50000,50000,0,50000,0,0,0,0,0.00,0.00,0.00,0.00
2017-08-19 12:40:00,0,50000,0,0.00,0,0,0,0,50000,50000,0,50000,0,0,0,0,0.00,0.00,0.00,0.00
2017-08-19 12:50:00,0,50000,0,0.00,0,0,0,0,50000,50000,0,50000,0,0,0,0,0.00,0.00,0.00,0.00
2017-08-19 13:00:00,0,50000,0,0.00,0,0,0,0,50000,50000,0,50000,0,0,0,0,0.00,0.00,0.00,0.00
2017-08-19 13:10:00,0,50000,0,0.00,0,0,0,0,50000,50000,0,50000,0,0,0,0,0.00,0.00,0.00,0.00
2017-08-19 13:20:00,0,50000,0,0.00,0,0,0,0,50000,50000,0,50000,0,0,0,0,0.00,0.00,0.00,0.00
2017-08-19 13:30:00,0,50000,0,0.00,0,0,0,0,50000,50000,0,50000,0,0,0,0,0.00,0.00,0.00,0.00
2017-08-19 13:40:00,0,50000,0,0.00,0,0,0,0,50000,50000,0,50000,0,0,0,0,0.00,0.00,0.00,0.00
2017-08-19 13:50:00,0,50000,0,0.00,0,2,1,0,50000,50000,0,50000,0,0,0,0,0.00,0.00,0.00,0.00
2017-08-19 14:00:00,2,50000,0,0.00,2,2,0,2,50000,50000,0,50000,0,0,0,0,0.00,0.00,0.00,0.00
2017-08-19 14:10:00,2,50000,0,0.00,2,2,0,2,50000,50000,0,50000,0,0,0,0,0.00,0.00,0.00,0.00
2017-08-19 14:20:00,2,50000,0,0.00,2,2,0,2,50000,50000,0,50000,0,0,0,0,0.00,0.00,0.00,0.00
2017-08-19 14:30:00,2,50000,0,0.00,2,2,0,2,50000,50000,0,50000,0,0,0,0,0.00,0.00,0.00,0.00
2017-08-19 14:40:00,2,50000,0,0.00,2,2,0,2,50000,50000,0,50000,0,0,0,0,0.00,0.00,0.00,0.00
2017-08-19 14:50:00,2,50000,0,0.00,2,2,0,2,50000,50000,0,50000,0,0,0,0,0.00,0.00,0.00,0.00
2017-08-19 15:00:00,1,50000,0,0.00,0,2,1,0,50000,50000,0,50000,0,0,0,0,0.00,0.00,0.00,0.00
2017-08-19 15:10:00,0,50000,0,0.00,0,0,0,0,50000,50000,0,50000,0,0,0,0,0.00,0.00,0.00,0.00
2017-08-19 15:20:00,0,50000,0,0.00,0,0,0,0,50000,50000,0,50000,0,0,0,0,0.00,0.00,0.00,0.00
2017-08-19 15:30:00,0,50000,0,0.00,0,0,0,0,50000,50000,0,50000,0,0,0,0,0.00,0.00,0.00,0.00
2017-08-19 15:40:00,0,50000,0,0.00,0,0,0,0,50000,50000,0,50000,0,0,0,0,0.00,0.00,0.00,0.00
2017-08-19 15:50:00,0,50000,0,0.00,0,0,0,0,50000,50000,0,50000,0,0,0,0,0.00,0.00,0.00,0.00
2017-08-19 16:00:00,0,50000,0,0.00,0,0,0,0,50000,50000,0,50000,0,0,0,0,0.00,0.00,0.00,0.00
2017-08-19 16:10:00,0,50000,0,0.00,0,0,0,0,50000,50000,0,50000,0,0,0,0,0.00,0.00,0.00,0.00
2017-08-19 16:20:00,0,50000,0,0.00,0,0,0,0,50000,50000,0,50000,0,0,0,0,0.00,0.00,0.00,0.00
2017-08-19 16:30:00,0,50000,0,0.00,0,0,0,0,50000,50000,0,50000,0,0,0,0,0.00,0.00,0.00,0.00
2017-08-19 16:40:00,0,50000,0,0.00,0,0,0,0,50000,50000,0,50000,0,0,0,0,0.00,0.00,0.00,0.00
2017-08-19 16:50:00,0,50000,0,0.00,0,0,0,0,50000,50000,0,50000,0,0,0,0,0.00,0.00,0.00,0.00
2017-08-19 17:00:00,0,50000,0,0.00,0,0,0,0,50000,50000,0,50000,0,0,0,0,0.00,0.00,0.00,0.00
2017-08-19 17:10:00,0,50000,0,0.00,0,0,0,0,50000,50000,0,50000,0,0,0,0,0.00,0.00,0.00,0.00
2017-08-19 17:20:00,0,49646,0,0.00,0,0,0,0,47974,50000,687,50000,0,0,0,0,0.00,0.00,0.00,0.00
2017-08-19 17:30:00,0,50000,0,0.00,0,0,0,0,50000,50000,0,50000,0,0,0,0,0.00,0.00,0.00,0.00
2017-08-19 17:40:00,0,50000,0,0.00,0,0,0,0,50000,50000,0,50000,0,0,0,0,0.00,0.00,0.00,0.00
2017-08-19 17:50:00,0,49853,0,0.00,0,0,0,0,49180,50000,296,50000,0,0,0,0,0.00,0.00,0.00,0.00
2017-08-19 18:00:00,0,50000,0,0.00,0,0,0,0,50000,50000,0,50000,0,0,0,0,0.00,0.00,0.00,0.00
2017-08-19 18:10:00,0,50000,0,0.00,0,0,0,0,50000,50000,0,50000,0,0,0,0,0.00,0.00,0.00,0.00
2017-08-19 18:20:00,0,50000,0,0.00,0,0,0,0,50000,50000,0,50000,0,0,0,0,0.00,0.00,0.00,0.00
2017-08-19 18:30:00,0,49911,0,0.00,0,0,0,0,49111,50000,267,50000,0,0,0,0,0.00,0.00,0.00,0.00
2017-08-19 18:40:00,0,50000,0,0.00,0,0,0,0,50000,50000,0,50000,0,0,0,0,0.00,0.00,0.00,0.00
2017-08-19 18:50:00,0,49340,0,0.00,0,0,0,0,44584,50000,1606,50000,0,0,0,0,0.00,0.00,0.00,0.00
2017-08-19 19:00:00,0,50000,0,0.00,0,0,0,0,50000,50000,0,50000,0,0,0,0,0.00,0.00,0.00,0.00
2017-08-19 19:10:00,0,50000,0,0.00,0,0,0,0,50000,50000,0,50000,0,0,0,0,0.00,0.00,0.00,0.00
2017-08-19 19:20:00,0,49864,0,0.00,0,0,0,0,48999,50000,308,50000,0,0,0,0,0.00,0.00,0.00,0.00
2017-08-19 19:30:00,0,49998,0,0.00,0,0,0,0,49979,50000,6,50000,0,0,0,0,0.00,0.00,0.00,0.00
2017-08-19 19:40:00,0,50000,0,0.00,0,0,0,0,50000,50000,0,50000,0,0,0,0,0.00,0.00,0.00,0.00
2017-08-19 19:50:00,0,49999,0,0.00,0,0,0,0,49993,50000,2,50000,0,0,0,0,0.00,0.00,0.00,0.00
2017-08-19 20:00:00,0,49912,0,0.00,0,0,0,0,49115,50000,266,50000,0,0,0,0,0.00,0.00,0.00,0.00
2017-08-19 20:10:00,0,49532,0,0.00,0,0,0,0,45490,50000,1348,50000,0,0,0,0,0.00,0.00,0.00,0.00
2017-08-19 20:20:00,0,49396,0,0.00,0,0,0,0,45502,50000,1377,50000,0,0,0,0,0.00,0.00,0.00,0.00
2017-08-19 20:30:00,0,49092,0,0.00,0,0,0,0,47160,50000,1200,50000,0,0,0,0,0.00,0.00,0.00,0.00
2017-08-19 20:40:00,0,49402,0,0.00,0,0,0,0,47046,50000,1021,50000,0,0,0,0,0.00,0.00,0.00,0.00
2017-08-19 20:50:00,0,49601,0,0.00,0,0,0,0,47225,50000,827,50000,0,0,0,0,0.00,0.00,0.00,0.00
2017-08-19 21:00:00,0,49716,0,0.00,0,0,0,0,47483,50000,751,50000,0,0,0,0,0.00,0.00,0.00,0.00
2017-08-19 21:10:00,0,50000,0,0.00,0,0,0,0,50000,50000,0,50000,0,0,0,0,0.00,0.00,0.00,0.00
2017-08-19 21:20:00,0,50000,0,0.00,0,0,0,0,50000,50000,0,50000,0,0,0,0,0.00,0.00,0.00,0.00
2017-08-19 21:30:00,0,49622,0,0.00,0,0,0,0,47147,50000,870,50000,0,0,0,0,0.00,0.00,0.00,0.00
2017-08-19 21:40:00,0,48628,0,0.00,0,0,0,0,45224,50000,1768,49764,0,0,0,0,0.00,0.00,0.00,0.00
2017-08-19 21:50:00,0,50000,0,0.00,0,0,0,0,50000,50000,0,50000,0,0,0,0,0.00,0.00,0.00,0.00
2017-08-19 22:00:00,0,49911,0,0.00,0,0,0,0,49110,50000,267,50000,0,0,0,0,0.00,0.00,0.00,0.00
2017-08-19 22:10:00,0,50000,0,0.00,0,0,0,0,50000,50000,0,50000,0,0,0,0,0.00,0.00,0.00,0.00
2017-08-19 22:20:00,0,49068,0,0.00,0,0,0,0,46263,50000,1143,49502,0,0,0,0,0.00,0.00,0.00,0.00
2017-08-19 22:30:00,0,49238,0,0.00,0,0,0,0,44447,50000,1647,50000,0,0,0,0,0.00,0.00,0.00,0.00
2017-08-19 22:40:00,0,50000,0,0.00,0,0,0,0,50000,50000,0,50000,0,0,0,0,0.00,0.00,0.00,0.00
2017-08-19 22:50:00,0,49015,0,0.00,0,0,0,0,44706,50000,1829,50000,0,0,0,0,0.00,0.00,0.00,0.00
2017-08-19 23:00:00,0,49936,0,0.00,0,0,0,0,49364,50000,191,50000,0,0,0,0,0.00,0.00,0.00,0.00
2017-08-19 23:10:00,0,47830,0,0.00,0,0,0,0,39759,50000,3968,50000,0,0,0,0,0.00,0.00,0.00,0.00
2017-08-19 23:20:00,0,49916,0,0.00,0,0,0,0,49155,50000,254,50000,0,0,0,0,0.00,0.00,0.00,0.00
2017-08-19 23:30:00,0,47549,0,0.00,0,0,0,0,39892,50000,3806,50000,0,0,0,0,0.00,0.00,0.00,0.00
2017-08-19 23:40:00,0,47931,0,0.00,0,0,0,0,41813,50000,3151,50000,0,0,0,0,0.00,0.00,0.00,0.00
2017-08-19 23:50:00,0,49501,0,0.00,0,0,0,0,45695,50000,1285,50000,0,0,0,0,0.00,0.00,0.00,0.00
